Change the Weather History Date:

Wednesday, December 14, 2011

  Actual Average Record
Temperature  
Mean Temperature 27 °F 22 °F  
Max Temperature 30 °F 29 °F 54 °F (1924)
Min Temperature 24 °F 16 °F -12 °F (1955)
Degree Days  
Heating Degree Days 38 43  
Month to date heating degree days 581 573  
Since 1 July heating degree days 2633 2777  
Cooling Degree Days 0 0  
Month to date cooling degree days 0 0  
Year to date cooling degree days 97 147  
Moisture  
Dew Point 22 °F    
Average Humidity 81    
Maximum Humidity 92    
Minimum Humidity 69    
Precipitation  
Precipitation T in 0.05 in 0.31 in (1901)
Month to date precipitation 0.05 0.67  
Year to date precipitation 15.48 16.10  
Snow  
Snow T in - - ()
Month to date snowfall 0.6  
Year to date snowfall 29.8  
Since 1 July snowfall 2.8  
Snow Depth T in    
Sea Level Pressure  
Sea Level Pressure 30.16 in    
Wind  
Wind Speed 0 mph (North)    
Max Wind Speed 25 mph    
Max Gust Speed 26 mph    
Visibility 10 miles    
Events Snow    
T = Trace of Precipitation, MM = Missing Value Source: NWS Daily Summary

Daily Weather History Graph

Daily Weather History Graph

Search for Another Location

Airport or City:

Trip Planner

Search our weather history database for the weather conditions in past years. The results will help you decide how hot, cold, wet, or windy it might be!

Date:

Astronomy

Dec. 14, 2011 Rise Set
Actual Time 8:20 AM MST 4:42 PM MST
Civil Twilight 7:43 AM MST 5:19 PM MST
Nautical Twilight 7:04 AM MST 5:59 PM MST
Astronomical Twilight 6:26 AM MST 6:37 PM MST
Moon 9:23 PM MST (12/14) 10:53 AM MST (12/14)
Length of Visible Light 9h 35m
Length of Day
8h 22m
Waning Gibbous, 83% of the Moon is Illuminated
Dec 14
Waning Gibbous
Dec 17
Last Quarter
Dec 24
New
Dec 31
First Quarter
Jan 9
Full

Hourly Weather History & Observations

Time (MST) Temp. Dew Point Humidity Pressure Visibility Wind Dir Wind Speed Gust Speed Precip Events Conditions
12:55 AM 25.0 °F 19.9 °F 81% 30.09 in 10.0 mi Calm Calm - N/A   Overcast
1:55 AM 24.8 °F 19.4 °F 80% 29.99 in 10.0 mi Calm Calm - N/A   Overcast
2:55 AM 24.1 °F 19.9 °F 84% 30.11 in 10.0 mi Calm Calm - N/A   Overcast
3:55 AM 25.0 °F 21.0 °F 85% 30.11 in 10.0 mi Calm Calm - N/A   Overcast
4:55 AM 24.1 °F 21.0 °F 88% 30.13 in 10.0 mi Calm Calm - N/A   Overcast
5:55 AM 24.1 °F 21.0 °F 88% 30.15 in 10.0 mi Calm Calm - N/A   Overcast
6:55 AM 24.1 °F 21.0 °F 88% 30.16 in 10.0 mi North - - N/A   Overcast
7:55 AM 24.8 °F 21.2 °F 86% 30.06 in 10.0 mi Calm Calm - N/A   Overcast
8:55 AM 24.8 °F 21.2 °F 86% 30.07 in 9.0 mi Calm Calm - N/A Snow Light Snow
9:55 AM 26.1 °F 21.0 °F 81% 30.21 in 9.0 mi Calm Calm - 0.00 in Snow Light Snow
10:08 AM 26.6 °F 21.2 °F 80% 30.11 in 9.0 mi Calm Calm - 0.00 in Snow Light Snow
10:29 AM 26.6 °F 21.2 °F 80% 30.11 in 9.0 mi Calm Calm - 0.00 in Snow Light Snow
10:55 AM 27.0 °F 21.0 °F 78% 30.22 in 9.0 mi Calm Calm - 0.00 in Snow Light Snow
11:55 AM 28.0 °F 21.9 °F 78% 30.22 in 9.0 mi Calm Calm - 0.00 in Snow Light Snow
12:55 PM 28.9 °F 21.9 °F 75% 30.20 in 9.0 mi Calm Calm - 0.00 in Snow Light Snow
1:55 PM 30.2 °F 21.2 °F 69% 30.11 in 9.0 mi Calm Calm - N/A Snow Light Snow
2:55 PM 30.0 °F 23.0 °F 75% 30.22 in 10.0 mi Calm Calm - 0.00 in   Overcast
3:55 PM 30.0 °F 23.0 °F 75% 30.23 in 10.0 mi Calm Calm - N/A   Overcast
4:55 PM 28.9 °F 24.1 °F 82% 30.23 in 10.0 mi Calm Calm - N/A   Overcast
5:55 PM 28.0 °F 23.0 °F 81% 30.23 in 10.0 mi Calm Calm - N/A   Overcast
6:55 PM 27.0 °F 23.0 °F 85% 30.22 in 10.0 mi Calm Calm - N/A   Overcast
7:55 PM 27.0 °F 24.1 °F 89% 30.22 in 10.0 mi Calm Calm - N/A   Overcast
8:55 PM 26.1 °F 23.0 °F 88% 30.21 in 10.0 mi Calm Calm - N/A   Overcast
9:55 PM 26.1 °F 23.0 °F 88% 30.19 in 10.0 mi Calm Calm - N/A   Overcast
10:55 PM 26.1 °F 23.0 °F 88% 30.19 in 10.0 mi Calm Calm - N/A   Overcast
11:55 PM 26.1 °F 23.0 °F 88% 30.17 in 10.0 mi Calm Calm - N/A   Overcast